Hourly Data Report for January 04, 2017

All times are specified in Local Standard Time (LST). Add 1 hour to adjust for Daylight Saving Time where and when it is observed.

ST LEONARD CS
NEW BRUNSWICK

47°09'28.050" N
67°49'55.014" W
245.00 m
810I001
71019
WIY

Download Data

Hourly Data (January 2017)
Hourly Data Report for January 4, 2017
Temp Definition
°C
Dew Point Temp Definition
°C
Rel Hum Definition
%
Wind Dir Definition
10's deg

Wind Spd Definition
km/h
Visibility Definition
km
Stn Press Definition
kPa
Hmdx Definition


Wind Chill Definition


Weather Definition


TIME
00:00 -6.6 -8.8 85 9 17   98.53   -13 LegendNANA
01:00 -6.2 -8.4 84 9 16   98.31   -12 LegendNANA
02:00 -5.9 -8.0 85 9 21   98.06   -13 LegendNANA
03:00 -5.8 -7.5 88 7 20   97.82   -13 LegendNANA
04:00 -5.6 -6.8 91 8 22   97.58   -13 LegendNANA
05:00 -5.5 -6.1 95 7 21   97.31   -12 LegendNANA
06:00 -5.1 -5.6 96 7 20   97.05   -12 LegendNANA
07:00 -4.5 -4.9 97 7 21   96.81   -11 LegendNANA
08:00 -3.9 -4.4 97 8 17   96.63   -10 LegendNANA
09:00 -3.8 -4.1 98 6 10   96.53   -8 LegendNANA
10:00 -3.4 -3.7 98 2 7   96.41   -6 LegendNANA
11:00 -2.8 -3.0 98 3 9   96.31   -6 LegendNANA
12:00 -2.3 -2.5 98 3 9   96.11   -6 LegendNANA
13:00 -2.9 -3.2 98 1 10   96.00   -7 LegendNANA
14:00 -2.4 -2.9 97 36 10   95.99   -6 LegendNANA
15:00 -2.2 -2.8 96 33 8   95.99   -5 LegendNANA
16:00 -2.4 -2.9 96 26 9   96.02   -6 LegendNANA
17:00 -2.6 -3.0 97 27 8   96.04   -6 LegendNANA
18:00 -3.1 -3.4 98 18 7   96.04   -6 LegendNANA
19:00 -3.1 -3.4 98 20 12   96.15   -8 LegendNANA
20:00 -2.8 -3.0 98 15 8   96.13   -6 LegendNANA
21:00 -2.5 -2.8 98 19 16   96.17   -8 LegendNANA
22:00 -2.4 -2.6 98 21 11   96.06   -6 LegendNANA
23:00 -2.3 -2.4 99 19 11   95.99   -6 LegendNANA

Notes on Data Quality.

Legend

  • E = Estimated
  • M = Missing
  • NA = Not Available
  • ‡ = Partner data that is not subject to review by the National Climate Archives
Date modified: